Location: *
(39.6167°S, 171.5333°W)
Time: 17:31:08
(UTC+00:00)

deb r/b (AGENA D) - Visible Passes

Search period start: 03 December 2021 00:00
Search period end: 13 December 2021 00:00
Orbit: 821 x 1073 km, 70.1° (Epoch: 02 December)

Date Brightness Start Highest point End Pass type
(mag) Time Alt. Az. Time Alt. Az. Time Alt. Az.
03 Dec ? 09:45:59 10° S 09:51:23 42° ESE 09:52:41 37° E visible
03 Dec ? 11:32:52 10° SW 11:36:43 26° W 11:36:43 26° W visible
04 Dec ? 08:18:52 10° SSE 08:20:58 12° SE 08:23:03 10° ESE visible
04 Dec ? 10:02:41 10° SSW 10:08:24 72° ESE 10:09:10 63° ENE visible
04 Dec ? 11:51:01 10° WSW 11:53:12 15° W 11:53:12 15° W visible
05 Dec ? 08:34:20 10° S 08:38:23 19° SE 08:41:38 13° E visible
05 Dec ? 10:19:36 10° SSW 10:25:18 68° WNW 10:25:41 66° NW visible
06 Dec ? 08:50:35 10° S 08:55:37 31° ESE 08:58:11 22° E visible
06 Dec ? 10:36:47 10° SW 10:42:06 39° WNW 10:42:13 39° WNW visible
07 Dec ? 09:07:07 10° SSW 09:12:44 51° ESE 09:14:46 36° ENE visible
07 Dec ? 10:54:24 10° SW 10:58:48 23° WNW 10:58:49 23° WNW visible
08 Dec ? 07:39:25 10° SSE 07:42:26 14° SE 07:45:30 10° E visible
08 Dec ? 09:23:54 10° SSW 09:29:41 86° ESE 09:31:23 50° NNE visible
08 Dec ? 11:13:08 10° WSW 11:15:23 12° W 11:15:26 12° W visible
09 Dec ? 07:55:18 10° S 07:59:47 23° SE 08:03:59 12° ENE visible
09 Dec ? 09:40:54 10° SSW 09:46:33 56° WNW 09:48:02 45° NNW visible
10 Dec ? 08:11:40 10° S 08:16:59 37° ESE 08:20:41 19° ENE visible
10 Dec ? 09:58:13 10° SW 10:03:19 33° WNW 10:04:44 29° NW visible
11 Dec ? 08:28:18 10° SSW 08:34:02 61° ESE 08:37:25 26° NE visible
11 Dec ? 10:16:03 10° WSW 10:19:59 19° W 10:21:28 17° WNW visible
12 Dec ? 08:45:09 10° SSW 08:50:58 80° WNW 08:54:11 30° NNE visible
